Weather reports worldwide

Advertisment
Aachen-Orsbach, Germany (10505): temperature & dewpoint: 16.09.2019 23:00:00 - 22.09.2019 23:00:00 (CEST)Aachen-Orsbach, Germany (10505): temperature 5cm & temperature -5cm: 16.09.2019 23:00:00 - 22.09.2019 23:00:00 (CEST)Aachen-Orsbach, Germany (10505): temperature -20cm & temperature -100cm: 16.09.2019 23:00:00 - 22.09.2019 23:00:00 (CEST)Aachen-Orsbach, Germany (10505): wind speed & gusts: 16.09.2019 23:00:00 - 22.09.2019 23:00:00 (CEST)Aachen-Orsbach, Germany (10505): wind direction: 16.09.2019 23:00:00 - 22.09.2019 23:00:00 (CEST)Aachen-Orsbach, Germany (10505): reduced air pressure: 16.09.2019 23:00:00 - 22.09.2019 23:00:00 (CEST)Aachen-Orsbach, Germany (10505): visibility: 16.09.2019 23:00:00 - 22.09.2019 23:00:00 (CEST)Aachen-Orsbach, Germany (10505): sunshine duration: 16.09.2019 23:00:00 - 22.09.2019 23:00:00 (CEST)Aachen-Orsbach, Germany (10505): precipitation: 16.09.2019 23:00:00 - 22.09.2019 23:00:00 (CEST)
Date & Time tt [°C] td [°C] tt 5cm [°C] tt -5cm [°C] tt -20cm [°C] tt -100cm [°C] ff [km/h] ff [kn] fx [km/h] fx [kn] dd ppp [hPa] vv [km] sd [min] rr [mm]
22.09.2019 23:00:00 15,9 14,7 15,5 18,4 17,7 16,1 20 11 34 19 WSW 1010,4 9 0 0,3
22.09.2019 22:00:00 17,7 14,9 17,2 18,9 17,7 16,1 11 6 39 21 WSW 1009,6 75 0 0,0
22.09.2019 21:00:00 19,2 15,9 17,9 19,5 17,7 16,1 30 16 42 23 SSW 1008,8 49 0 0,1
22.09.2019 20:00:00 21,8 13,6 20,7 20,0 17,6 16,1 11 6 22 12 SSW 1007,3 63 0 0,0
22.09.2019 19:00:00 23,5 13,5 22,5 20,9 17,4 16,1 11 6 24 13 SSW 1006,7 73 0 0,0
22.09.2019 18:00:00 25,2 13,0 25,7 21,3 17,2 16,1 16 9 30 16 S 1006,3 54 18 0,0
22.09.2019 17:00:00 25,5 12,4 26,1 22,0 16,9 16,1 25 14 43 23 S 1006,2 75 18 0,0
22.09.2019 16:00:00 25,3 13,3 27,0 21,8 16,6 16,1 17 9 33 18 SSE 1006,4 48 0 0,0
22.09.2019 15:00:00 25,1 12,9 26,5 22,0 16,3 16,1 21 11 41 22 S 1007,1 63 42 0,0
22.09.2019 14:00:00 24,4 12,9 27,9 20,8 16,0 16,1 19 10 37 20 S 1007,5 61 11 0,0
22.09.2019 13:00:00 23,5 12,4 26,5 20,2 15,8 16,1 18 10 27 15 S 1008,0 61 20 0,0
22.09.2019 12:00:00 22,6 12,0 25,0 19,5 15,6 16,1 17 9 37 20 SSW 1008,6 60 54 0,0
22.09.2019 11:00:00 23,2 12,5 26,5 18,0 15,5 16,1 14 8 21 11 SSW 1008,8 58 60 0,0
22.09.2019 10:00:00 21,9 11,8 24,3 16,1 15,5 16,2 15 8 27 15 SSE 1009,1 67 60 0,0
22.09.2019 09:00:00 20,9 11,2 21,2 15,0 15,5 16,2 14 8 28 15 S 1009,1 75 58 0,0
22.09.2019 08:00:00 18,9 8,9 17,3 14,6 15,6 16,2 18 10 29 16 S 1009,3 68 0 0,0
22.09.2019 07:00:00 18,6 7,3 16,3 14,5 15,6 16,2 17 9 28 15 S 1009,3 75 0 0,0
22.09.2019 06:00:00 18,9 5,8 17,1 14,5 15,7 16,2 23 12 30 16 S 1009,8 68 0 0,0
22.09.2019 05:00:00 19,0 5,2 16,9 14,4 15,8 16,2 21 11 29 15 S 1010,2 75 0 0,0
22.09.2019 04:00:00 18,7 4,9 16,4 14,4 15,9 16,2 20 11 31 17 S 1010,7 75 0 0,0
22.09.2019 03:00:00 19,1 4,5 17,0 14,2 16,1 16,2 23 13 33 18 S 1011,2 71 0 0,0
22.09.2019 02:00:00 16,4 4,4 13,0 14,2 16,2 16,2 15 8 20 11 SSE 1011,8 75 0 0,0
22.09.2019 01:00:00 14,9 3,7 9,5 14,7 16,4 16,2 9 5 21 11 E 1012,4 58 0 0,0
22.09.2019 00:00:00 16,0 3,4 12,1 15,2 16,5 16,2 14 8 27 14 SSE 1013,1 75 0 0,0
21.09.2019 23:00:00 16,6 3,6 14,0 15,8 16,6 16,2 17 9 22 12 ESE 1013,6 66 0 0,0
21.09.2019 22:00:00 16,5 3,8 13,3 16,4 16,6 16,2 14 8 20 11 E 1013,9 69 0 0,0
21.09.2019 21:00:00 16,8 3,3 12,7 17,4 16,6 16,2 15 8 20 11 E 1014,1 75 0 0,0
21.09.2019 20:00:00 19,6 3,5 14,1 18,8 16,4 16,2 11 6 18 10 ESE 1013,8 70 20 0,0
21.09.2019 19:00:00 22,5 3,6 20,6 20,3 16,2 16,2 12 6 26 14 SE 1013,7 74 60 0,0
21.09.2019 18:00:00 24,5 2,7 24,6 21,3 15,8 16,2 18 10 26 14 ESE 1013,9 58 60 0,0
21.09.2019 17:00:00 25,4 3,0 27,5 21,8 15,4 16,3 17 9 29 15 E 1014,1 58 60 0,0
21.09.2019 16:00:00 25,7 2,4 28,9 21,7 14,9 16,3 16 9 26 14 E 1014,6 62 60 0,0
21.09.2019 15:00:00 24,9 1,8 29,5 21,0 14,5 16,3 16 9 26 14 E 1015,5 47 60 0,0
21.09.2019 14:00:00 23,8 3,0 28,4 19,7 14,2 16,3 18 10 31 17 ESE 1016,3 72 60 0,0
21.09.2019 13:00:00 22,9 2,7 27,7 17,9 13,9 16,3 19 10 29 15 E 1017,3 75 59 0,0
21.09.2019 12:00:00 20,7 4,8 24,9 15,8 13,8 16,3 18 10 24 13 E 1018,0 75 60 0,0
21.09.2019 11:00:00 18,0 4,1 21,7 13,6 13,8 16,3 18 10 23 12 E 1018,8 75 60 0,0
21.09.2019 10:00:00 14,9 3,9 17,1 11,8 13,9 16,3 18 10 24 13 E 1019,3 41 60 0,0
21.09.2019 09:00:00 11,5 3,2 12,2 10,5 14,1 16,3 14 8 18 10 E 1019,7 51 60 0,0
21.09.2019 08:00:00 8,1 2,3 5,8 10,2 14,3 16,3 11 6 16 9 E 1020,0 61 4 0,0
21.09.2019 07:00:00 7,5 2,1 4,8 10,5 14,4 16,3 15 8 22 12 E 1020,3 66 0 0,0
21.09.2019 06:00:00 7,0 2,3 4,9 10,6 14,6 16,3 18 10 20 11 E 1020,9 60 0 0,0
21.09.2019 05:00:00 6,5 2,2 3,8 11,0 14,8 16,3 15 8 19 10 E 1021,6 63 0 0,0
21.09.2019 04:00:00 7,7 2,5 5,4 11,5 15,0 16,3 16 9 19 10 E 1021,6 63 0 0,0
21.09.2019 03:00:00 9,6 3,0 7,0 11,8 15,1 16,3 14 7 23 12 ESE 1022,2 62 0 0,0
21.09.2019 02:00:00 9,4 2,9 6,6 12,2 15,3 16,3 18 10 21 11 E 1022,6 64 0 0,0
21.09.2019 01:00:00 10,1 3,1 7,2 12,7 15,5 16,3 16 9 19 10 E 1022,9 61 0 0,0
21.09.2019 00:00:00 11,1 3,2 8,4 13,2 15,6 16,4 16 9 22 12 E 1023,2 56 0 0,0
20.09.2019 23:00:00 11,5 3,2 9,2 13,8 15,7 16,4 18 10 23 12 E 1023,7 65 0 0,0
20.09.2019 22:00:00 11,7 3,3 9,3 14,4 15,8 16,4 16 8 23 13 E 1024,2 61 0 0,0
20.09.2019 21:00:00 13,3 3,8 10,9 15,3 15,8 16,4 19 11 23 12 E 1024,6 55 0 0,0
20.09.2019 20:00:00 13,6 3,8 10,7 16,4 15,7 16,4 14 7 22 12 E 1024,9 55 7 0,0
20.09.2019 19:00:00 17,0 3,6 15,3 17,6 15,5 16,4 16 9 31 17 E 1024,8 66 53 0,0
20.09.2019 18:00:00 18,5 2,1 19,0 18,5 15,3 16,4 23 12 32 17 E 1025,0 69 60 0,0
20.09.2019 17:00:00 19,1 0,6 20,3 19,3 14,9 16,4 20 11 35 19 E 1025,3 58 58 0,0
20.09.2019 16:00:00 19,3 2,1 22,7 19,6 14,6 16,4 22 12 35 19 E 1025,8 75 60 0,0
20.09.2019 15:00:00 18,9 2,3 23,8 19,1 14,3 16,4 23 12 33 18 E 1026,6 49 60 0,0
20.09.2019 14:00:00 17,7 2,2 22,8 18,0 14,0 16,4 21 11 31 17 E 1027,3 57 60 0,0
20.09.2019 13:00:00 16,5 3,5 21,7 16,5 13,8 16,4 18 10 29 16 ENE 1028,1 40 57 0,0
20.09.2019 12:00:00 15,4 3,1 20,2 14,9 13,7 16,4 16 8 25 14 E 1028,7 69 60 0,0
20.09.2019 11:00:00 13,6 3,4 17,7 12,9 13,7 16,4 14 8 19 10 E 1029,4 50 60 0,0
20.09.2019 10:00:00 11,5 3,7 14,2 11,1 13,8 16,4 13 7 16 9 E 1029,6 56 60 0,0
20.09.2019 09:00:00 9,3 3,8 10,2 9,7 14,0 16,4 10 6 13 7 ESE 1029,7 37 60 0,0
20.09.2019 08:00:00 6,1 2,8 3,0 9,2 14,2 16,4 6 4 10 5 ESE 1029,7 59 3 0,0
20.09.2019 07:00:00 6,1 2,7 0,7 9,5 14,4 16,4 6 3 10 6 ESE 1029,5 49 0 0,0
20.09.2019 06:00:00 6,1 2,7 0,8 9,9 14,6 16,4 9 5 10 6 E 1029,7 48 0 0,0
20.09.2019 05:00:00 6,3 2,8 1,0 10,3 14,8 16,5 8 4 11 6 ESE 1029,9 52 0 0,0
20.09.2019 04:00:00 6,0 2,6 2,2 10,7 15,0 16,5 8 4 12 6 ESE 1030,2 50 0 0,0
20.09.2019 03:00:00 6,9 2,9 2,9 11,1 15,2 16,5 8 4 14 8 ESE 1030,6 51 0 0,0
20.09.2019 02:00:00 7,0 3,6 4,0 11,6 15,4 16,5 12 7 14 7 SE 1030,7 46 0 0,0
20.09.2019 01:00:00 8,3 3,5 3,7 12,1 15,6 16,5 10 6 12 6 E 1030,8 58 0 0,0
20.09.2019 00:00:00 8,8 3,3 3,0 12,8 15,8 16,5 8 4 16 8 E 1031,1 57 0 0,0
19.09.2019 23:00:00 10,2 3,3 7,1 13,6 15,9 16,5 11 6 17 9 ENE 1030,9 63 0 0,0
19.09.2019 22:00:00 11,9 3,5 9,4 14,3 16,0 16,5 10 5 15 8 NE 1030,5 60 0 0,0
19.09.2019 21:00:00 12,4 3,4 9,7 15,2 16,0 16,5 9 5 16 8 NE 1030,3 52 0 0,0
19.09.2019 20:00:00 13,2 3,1 10,5 16,5 15,9 16,5 8 5 18 10 NNE 1029,9 59 23 0,0
19.09.2019 19:00:00 14,6 2,9 13,9 17,9 15,8 16,5 11 6 21 11 NNE 1029,7 60 60 0,0
19.09.2019 18:00:00 15,3 2,8 16,3 18,9 15,5 16,5 11 6 23 13 NNE 1029,3 65 60 0,0
19.09.2019 17:00:00 16,4 3,2 18,6 19,5 15,2 16,5 13 7 26 14 NE 1029,6 59 60 0,0
19.09.2019 16:00:00 15,2 2,8 19,0 19,6 14,8 16,5 13 7 28 15 NNE 1030,2 59 60 0,0
19.09.2019 15:00:00 15,1 2,6 20,0 18,9 14,5 16,5 16 9 28 15 ENE 1030,4 67 59 0,0
19.09.2019 14:00:00 15,0 4,3 21,2 17,3 14,3 16,5 16 9 24 13 NE 1030,8 52 40 0,0
19.09.2019 13:00:00 14,4 5,2 19,4 16,3 14,1 16,5 12 7 30 16 NE 1031,2 62 38 0,0
19.09.2019 12:00:00 13,8 4,6 19,1 15,0 14,0 16,5 16 8 25 13 ENE 1031,1 58 58 0,0
19.09.2019 11:00:00 11,9 5,8 16,2 13,1 14,1 16,5 11 6 20 11 NE 1031,4 47 60 0,0
19.09.2019 10:00:00 10,7 6,7 13,5 11,3 14,2 16,5 8 5 15 8 E 1031,3 36 60 0,0
19.09.2019 09:00:00 8,6 6,0 9,9 9,8 14,4 16,5 6 3 8 4 E 1030,8 22 60 0,0
19.09.2019 08:00:00 6,1 5,6 2,2 9,5 14,6 16,5 5 3 7 4 E 1030,5 11 6 0,0
19.09.2019 07:00:00 6,2 5,8 0,2 9,9 14,8 16,5 3 2 7 4 ESE 1030,0 11 0 0,0
19.09.2019 06:00:00 7,4 6,1 0,8 10,4 15,1 16,5 5 3 8 4 NE 1029,8 31 0 0,0
19.09.2019 05:00:00 6,3 5,1 0,7 10,9 15,2 16,5 7 4 9 5 E 1029,8 32 0 0,0
19.09.2019 04:00:00 8,1 5,8 4,7 11,5 15,4 16,6 6 4 12 6 NE 1029,7 45 0 0,0
19.09.2019 03:00:00 8,8 6,0 6,5 11,9 15,6 16,6 9 5 14 7 NNE 1029,5 46 0 0,0
19.09.2019 02:00:00 9,0 6,1 5,5 12,4 15,8 16,6 8 5 13 7 NNE 1029,5 54 0 0,0
19.09.2019 01:00:00 9,5 6,0 7,1 12,9 15,9 16,6 8 5 13 7 NNE 1029,3 66 0 0,0
19.09.2019 00:00:00 10,5 6,0 8,1 13,4 16,1 16,6 9 5 15 8 NNE 1028,8 51 0 0,0
18.09.2019 23:00:00 11,1 5,6 8,9 14,1 16,2 16,6 9 5 19 10 NNE 1028,5 62 0 0,0
18.09.2019 22:00:00 11,7 5,1 9,8 14,9 16,2 16,6 10 5 19 10 NNE 1028,1 59 0 0,0
18.09.2019 21:00:00 13,4 5,0 12,7 15,6 16,3 16,6 13 7 18 10 N 1027,5 71 0 0,0
18.09.2019 20:00:00 13,0 3,7 10,2 16,6 16,2 16,6 8 4 20 11 N 1027,0 56 0 0,0
18.09.2019 19:00:00 15,2 3,7 15,1 17,6 16,0 16,6 15 8 22 12 NNW 1026,4 56 59 0,0
18.09.2019 18:00:00 15,7 3,1 16,7 18,1 15,8 16,6 13 7 19 10 NNW 1026,3 48 31 0,0
18.09.2019 17:00:00 15,1 3,9 16,2 19,0 15,6 16,6 11 6 26 14 NW 1026,6 49 37 0,0
18.09.2019 16:00:00 15,8 3,8 20,0 18,6 15,3 16,6 13 7 21 11 NNW 1026,7 49 26 0,0
18.09.2019 15:00:00 14,8 4,0 16,9 18,8 15,0 16,6 14 8 27 15 N 1027,0 54 32 0,0
18.09.2019 14:00:00 15,0 4,8 20,2 17,5 14,8 16,6 11 6 20 11 N 1027,5 49 33 0,0
18.09.2019 13:00:00 13,8 4,6 16,5 16,6 14,6 16,6 13 7 25 13 N 1027,8 43 26 0,0
18.09.2019 12:00:00 14,0 5,6 18,0 15,6 14,5 16,6 14 8 28 15 N 1028,0 40 57 0,0
18.09.2019 11:00:00 12,3 6,1 16,2 13,6 14,6 16,6 10 5 17 9 NNE 1028,1 33 60 0,0
18.09.2019 10:00:00 10,3 6,2 13,7 11,7 14,7 16,6 6 3 10 5 N 1027,8 26 60 0,0
18.09.2019 09:00:00 8,7 5,3 10,9 10,1 14,9 16,6 4 2 11 6 SW 1027,6 26 60 0,0
18.09.2019 08:00:00 6,0 4,2 3,5 9,7 15,1 16,6 4 2 7 4 WSW 1027,2 24 5 0,0
18.09.2019 07:00:00 7,0 4,8 0,5 10,0 15,4 16,6 4 2 8 4 NW 1026,8 26 0 0,0
18.09.2019 06:00:00 6,6 4,7 1,0 10,4 15,6 16,6 4 2 7 4 N 1026,7 28 0 0,0
18.09.2019 05:00:00 7,9 4,9 1,6 10,8 15,9 16,6 4 2 7 4 NW 1026,4 28 0 0,0
18.09.2019 04:00:00 8,2 5,0 2,0 11,3 16,1 16,6 3 2 9 5 NNW 1026,2 31 0 0,0
18.09.2019 03:00:00 8,5 4,6 3,1 11,8 16,3 16,6 7 4 10 6 N 1026,3 32 0 0,0
18.09.2019 02:00:00 9,2 4,6 5,3 12,2 16,6 16,6 8 4 14 8 N 1026,2 35 0 0,0
18.09.2019 01:00:00 8,8 4,4 5,8 12,8 16,8 16,6 9 5 15 8 N 1026,1 37 0 0,0
18.09.2019 00:00:00 9,1 4,5 4,8 13,5 17,0 16,6 8 4 17 9 N 1025,7 38 0 0,0
17.09.2019 23:00:00 10,1 4,7 7,9 14,3 17,1 16,6 11 6 21 11 N 1025,4 41 0 0,0
17.09.2019 22:00:00 11,0 5,9 9,0 15,1 17,3 16,6 11 6 25 13 N 1024,8 37 0 0,0
17.09.2019 21:00:00 12,0 6,8 10,8 16,0 17,3 16,6 17 9 36 19 N 1024,0 37 0 0,0
17.09.2019 20:00:00 13,8 7,2 12,7 17,0 17,3 16,6 23 12 34 18 NNW 1022,9 49 17 0,0
17.09.2019 19:00:00 14,9 7,5 14,3 18,2 17,2 16,6 18 10 36 19 NW 1022,2 48 21 0,0
17.09.2019 18:00:00 16,5 7,0 17,7 19,1 17,1 16,6 27 15 42 23 NW 1021,8 48 50 0,0
17.09.2019 17:00:00 16,8 8,2 18,8 19,2 17,0 16,6 21 12 34 18 NW 1021,8 46 23 0,0
17.09.2019 16:00:00 16,1 7,4 18,3 18,9 16,8 16,6 18 10 29 16 W 1021,9 66 13 0,0
17.09.2019 15:00:00 16,0 8,1 19,6 19,0 16,7 16,6 14 7 28 15 W 1022,0 59 20 0,0
17.09.2019 14:00:00 15,1 7,0 16,9 19,0 16,5 16,6 19 10 28 15 WNW 1022,3 55 26 0,0
17.09.2019 13:00:00 14,8 6,7 20,6 18,1 16,4 16,6 14 8 26 14 WNW 1022,4 72 38 0,0
17.09.2019 12:00:00 14,9 7,6 19,0 16,9 16,4 16,6 14 7 26 14 NW 1022,5 42 48 0,0
17.09.2019 11:00:00 13,7 8,6 18,0 15,6 16,4 16,6 12 7 21 11 NW 1022,7 47 35 0,0
17.09.2019 10:00:00 12,8 9,4 15,0 14,9 16,5 16,6 14 7 20 11 WNW 1022,4 34 50 0,0
17.09.2019 09:00:00 11,6 10,9 12,1 14,3 16,7 16,6 10 5 14 8 WNW 1021,9 12 13 0,0
17.09.2019 08:00:00 10,6 10,1 9,6 14,3 16,8 16,6 6 3 11 6 W 1021,8 8 1 0,0
17.09.2019 07:00:00 11,8 11,2 11,3 14,8 16,9 16,6 8 5 13 7 NW 1021,4 8 0 0,0
17.09.2019 06:00:00 12,5 11,9 12,3 15,2 17,0 16,6 10 6 15 8 NNW 1021,1 8 0 0,0
17.09.2019 05:00:00 12,7 12,4 12,8 15,4 17,0 16,6 7 4 10 6 WNW 1020,9 2,5 0 0,0
17.09.2019 04:00:00 12,9 12,1 12,7 15,5 17,1 16,6 7 4 11 6 N 1021,0 5 0 0,0
17.09.2019 03:00:00 13,0 12,5 13,0 15,7 17,2 16,6 7 4 10 6 NW 1021,2 4,5 0 0,0
17.09.2019 02:00:00 13,2 11,9 12,8 15,8 17,3 16,6 7 4 10 6 NW 1021,3 10 0 0,0
17.09.2019 01:00:00 13,2 12,7 13,1 16,0 17,4 16,6 6 3 9 5 WSW 1021,4 4,4 0 0,0
17.09.2019 00:00:00 13,2 12,8 13,2 16,2 17,5 16,6 0 0 4 2 N 1021,4 6 0 0,0
16.09.2019 23:00:00 13,3 12,8 13,1 16,5 17,6 16,6 3 2 11 6 ENE 1021,3 6 0 0,0

tt = temperature
td = dewpoint
tt 5cm = temperature 5cm
tt -5cm = temperature -5cm
tt -20cm = temperature -20cm
tt -100cm = temperature -100cm
ff = wind speed
fx = gusts
dd = wind direction
ppp = reduced air pressure
vv = visibility
sd = sunshine duration
rr = precipitation

Next stations